DateTimeUTC,F1_A11,F1_S11,BsB_S11,BsG_S11,BsR_S11,BbsB_S11,BbsG_S11,BbsR_S11,BaB_A11,BaG_A11,BaR_A11,Tu_S11,T_S11,Uu_S11,U_S11,P_S11,T1_A11
2021-12-07T14:00:00Z,00000200,21000000,,,,,,,0000.91,0000.24,0000.35,20.1,27.1,,00.0,0636.4,31.2
2021-12-07T14:01:00Z,00000200,21000000,,,,,,,-000.72,-000.12,-000.09,20.2,27.1,,00.0,0636.4,31.2
2021-12-07T14:02:00Z,00000200,21000000,,,,,,,0000.13,-000.31,-000.10,20.2,27.1,,00.0,0636.4,31.2
2021-12-07T14:03:00Z,00000200,61000000,,,,,,,-000.07,0000.17,0000.26,20.2,27.1,,00.0,0636.4,31.1
2021-12-07T14:04:00Z,00000200,41000000,0000.37,-000.17,-000.43,-000.33,0000.21,0000.11,0000.08,0000.09,-000.10,20.3,27.0,,00.0,0637.2,31.1
2021-12-07T14:05:00Z,00000200,01000000,0000.02,0000.36,-000.02,0000.02,0000.06,0000.33,-000.03,0000.15,0000.03,20.3,26.9,,00.0,0637.3,31.1
2021-12-07T14:06:00Z,00000200,01000000,0000.52,0000.01,-000.32,-000.93,0000.14,-000.22,0000.05,-000.11,-000.04,20.3,26.9,,00.0,0637.3,31.1
2021-12-07T14:07:00Z,00000200,01000000,0000.72,0000.04,-000.07,-000.10,0000.15,-000.09,-000.13,0000.04,-000.00,20.3,26.9,,00.0,0637.3,31.1
2021-12-07T14:08:00Z,00000200,01000000,0000.71,-000.01,-000.21,0000.73,-000.16,0000.29,-000.01,-000.22,0000.02,20.3,26.9,,00.0,0637.3,31.1
2021-12-07T14:09:00Z,00000200,01000000,0000.44,-000.05,-000.20,-000.46,-000.15,0000.41,0000.02,0000.36,0000.01,20.3,26.9,,00.0,0637.3,31.1
2021-12-07T14:10:00Z,00000200,01000000,-000.11,-000.18,0000.16,-000.08,-000.13,0000.08,0000.13,-000.25,-000.24,20.4,26.9,,00.0,0637.4,31.2
2021-12-07T14:11:00Z,00000200,01000000,0000.14,-000.03,0000.20,-000.26,0000.13,0000.44,-000.25,0000.10,0000.27,20.4,26.9,,00.0,0637.4,31.2
2021-12-07T14:12:00Z,00000200,01000000,-000.34,-000.17,-000.23,-000.23,0000.23,0000.22,0000.31,-000.24,0000.05,20.5,26.9,,00.0,0637.4,31.2
2021-12-07T14:13:00Z,00000200,01000000,-000.19,0000.21,0000.32,0000.86,-000.27,0000.52,-000.28,0000.22,0000.02,20.5,27.0,,00.0,0637.4,31.2
2021-12-07T14:14:00Z,00000200,01000000,0001.03,0000.03,-000.39,0000.45,-000.20,0000.05,0000.51,0000.18,0000.05,20.6,27.0,,00.0,0637.4,31.2
2021-12-07T14:15:00Z,00000200,01000000,0000.76,0000.27,0000.24,0000.31,0000.07,0000.26,-000.10,0000.15,-000.01,20.6,27.0,,00.0,0637.4,31.2
2021-12-07T14:16:00Z,00000200,01000000,-000.29,0000.13,0000.21,-000.14,-000.01,0000.42,0000.02,0000.18,0000.09,20.5,27.0,,00.0,0637.4,31.2
2021-12-07T14:17:00Z,00000200,01000000,0000.15,0000.12,0000.06,0000.51,-000.01,0000.28,0000.03,-000.22,0000.00,20.5,27.0,,00.0,0637.4,31.2
2021-12-07T14:18:00Z,00000200,01000000,-000.16,0000.11,0000.16,0000.19,-000.03,0000.18,0000.03,0000.18,0000.15,20.4,27.0,,00.0,0637.4,31.1
2021-12-07T14:19:00Z,00000200,01000000,0000.91,0000.36,0000.11,0000.03,-000.20,0000.22,0000.17,-000.07,-000.21,20.4,26.9,,00.0,0637.4,31.1
2021-12-07T14:20:00Z,00000200,01000000,-001.11,0000.41,0000.00,0000.48,0000.22,0000.35,-000.58,-000.69,-000.11,20.3,26.9,,00.0,0637.4,31.1
2021-12-07T14:21:00Z,00000200,01000000,-000.17,0000.13,-000.12,-000.54,0000.18,0000.44,0000.16,0000.24,-000.04,20.3,26.8,,00.0,0637.4,31.1
2021-12-07T14:22:00Z,00000200,01000000,-000.10,0000.19,0000.40,0000.20,0000.01,0000.34,0000.08,-000.21,-000.05,20.3,26.8,,00.0,0637.4,31.1
2021-12-07T14:23:00Z,00000200,01000000,-000.17,-000.04,-000.31,-000.14,-000.15,0000.10,-000.00,0000.23,0000.04,20.3,26.8,,00.0,0637.4,31.1
2021-12-07T14:24:00Z,00000200,01000000,0000.43,0000.35,0000.28,0000.33,0000.17,0000.44,0000.43,0000.34,0000.26,20.3,26.8,,00.0,0637.4,31.1
2021-12-07T14:25:00Z,00000200,01000000,-000.04,0000.09,0000.25,0000.06,-000.00,0000.17,0000.04,0000.59,0000.35,20.3,26.8,,00.0,0637.4,31.1
2021-12-07T14:26:00Z,00000200,01000000,0000.46,-000.04,-000.06,-000.29,-000.08,0000.17,-000.01,-000.45,0000.01,20.4,26.8,,00.0,0637.4,31.2
2021-12-07T14:27:00Z,00000200,01000000,0000.10,-000.10,-000.04,-000.20,-000.01,-000.01,0000.31,0000.26,0000.02,20.4,26.8,,00.0,0637.4,31.1
2021-12-07T14:28:00Z,00000200,01000000,-000.12,0000.03,-000.08,0000.88,0000.22,0000.28,-000.05,-000.00,0000.21,20.4,26.8,,00.0,0637.4,31.1
2021-12-07T14:29:00Z,00000200,01000000,0000.10,0000.09,0000.05,0000.27,-000.08,0000.03,0000.20,0000.28,-000.19,20.3,26.8,,00.0,0637.4,31.1
2021-12-07T14:30:00Z,00000200,01000000,0001.07,0000.35,-000.35,-000.23,0000.08,0000.55,0000.21,-000.34,-000.00,20.3,26.8,,00.0,0637.4,31.1
2021-12-07T14:31:00Z,00000200,01000000,0000.93,-000.06,-000.32,-000.03,0000.29,-000.19,-000.16,0000.66,0000.17,20.2,26.7,,00.0,0637.4,31.1
2021-12-07T14:32:00Z,00000200,01000000,0000.12,-000.04,-000.21,-000.06,-000.26,0000.38,-000.24,-000.69,-000.29,20.1,26.7,,00.0,0637.4,31.1
2021-12-07T14:33:00Z,00000200,01000000,0000.71,0000.04,-000.09,0000.35,0000.17,0000.54,0000.13,-000.03,-000.16,20.1,26.7,,00.0,0637.3,31.1
2021-12-07T14:34:00Z,00000200,01000000,0000.35,-000.42,-000.09,0000.68,-000.01,0000.21,-000.38,0000.10,-000.02,20.0,26.6,,00.0,0637.4,31.0
2021-12-07T14:35:00Z,00000200,01000000,0000.09,0000.49,-000.14,0000.27,-000.16,0000.10,0000.05,-000.46,0000.02,20.0,26.6,,00.0,0637.4,31.0
2021-12-07T14:36:00Z,00000200,01000000,0000.87,-000.06,0000.29,0000.11,0000.41,0000.26,-000.25,-000.19,-000.12,19.9,26.5,,00.0,0637.3,31.1
2021-12-07T14:37:00Z,00000200,01000000,0000.67,-000.12,-000.09,0000.39,0000.35,-000.02,-000.05,0000.07,0000.00,20.0,26.5,,00.0,0637.4,31.1
2021-12-07T14:38:00Z,00000200,01000000,0000.55,0000.45,-000.35,0000.10,0000.24,-000.40,-000.06,-000.17,0000.22,20.0,26.5,,00.0,0637.4,31.1
2021-12-07T14:39:00Z,00000200,01000000,0001.06,0000.19,-000.18,-000.11,-000.22,0000.16,0000.03,0000.17,-000.34,20.1,26.5,,00.0,0637.4,31.1
2021-12-07T14:40:00Z,00000200,01000000,-000.25,0000.08,0000.10,-000.19,0000.20,0000.20,-000.21,-000.16,0000.18,20.1,26.6,,00.0,0637.5,31.1
2021-12-07T14:41:00Z,00000200,01000000,0000.42,0000.27,0000.03,-000.10,0000.10,0000.27,0000.06,-000.03,-000.06,20.2,26.6,,00.0,0637.5,31.1
2021-12-07T14:42:00Z,00000200,01000000,0000.64,0000.11,0000.06,-000.51,0000.25,0000.25,0000.07,-000.02,0000.05,20.2,26.6,,00.0,0637.5,31.1
2021-12-07T14:43:00Z,00000200,01000000,0000.58,0000.25,0000.02,0000.17,-000.07,0000.33,-000.21,-000.33,-000.29,20.3,26.6,,00.0,0637.6,31.2
2021-12-07T14:44:00Z,00000200,01000000,-000.19,0000.37,0000.21,0000.46,-000.27,0000.40,-000.27,-000.13,-000.14,20.3,26.7,,00.0,0637.6,31.2
2021-12-07T14:45:00Z,00000200,01000000,0000.39,0000.05,0000.08,0000.23,-000.07,0000.17,0000.04,0000.13,0000.27,20.4,26.7,,00.0,0637.6,31.1
2021-12-07T14:46:00Z,00000200,01000000,0000.13,0000.01,-000.16,0000.58,-000.03,0000.48,0000.01,0000.33,-000.17,20.3,26.7,,00.0,0637.6,31.1
2021-12-07T14:47:00Z,00000200,01000000,0000.18,-000.05,0000.49,0000.46,0000.14,0000.10,-000.15,-000.37,-000.12,20.3,26.7,,00.0,0637.6,31.1
2021-12-07T14:48:00Z,00000200,01000000,0000.29,0000.10,-000.00,0000.98,0000.23,0000.28,-000.50,-000.36,-000.19,20.2,26.7,,00.0,0637.6,31.1
2021-12-07T14:49:00Z,00000200,01000000,0000.13,0000.39,-000.16,0000.34,-000.26,0000.14,0000.33,0000.04,-000.07,20.2,26.7,,00.0,0637.6,31.1
2021-12-07T14:50:00Z,00000200,01000000,0000.10,0000.07,0000.15,0000.45,0000.04,0000.14,-000.42,-000.49,-000.34,20.1,26.6,,00.0,0637.6,31.1
2021-12-07T14:51:00Z,00000200,01000000,0000.29,0000.36,0000.12,0000.05,-000.09,0000.14,-000.39,-000.36,0000.02,20.1,26.6,,00.0,0637.6,31.1
2021-12-07T14:52:00Z,00000200,01000000,0000.14,0000.37,0000.13,-000.21,0000.06,-000.26,-000.06,0000.27,-000.08,20.1,26.6,,00.0,0637.6,31.1
2021-12-07T14:53:00Z,00000200,01000000,0000.34,0000.41,0000.14,0000.07,0000.23,0000.46,0000.13,-000.02,-000.27,20.1,26.6,,00.0,0637.6,31.1
2021-12-07T14:54:00Z,00000200,01000000,0000.36,0000.30,0000.27,0000.44,0000.26,0000.16,0000.15,-000.16,0000.43,20.1,26.6,,00.0,0637.6,31.1
2021-12-07T14:55:00Z,00000200,01000000,0000.47,-000.19,0000.11,-000.64,0000.15,0000.10,-000.29,0000.18,-000.13,20.2,26.6,,00.0,0637.6,31.1
2021-12-07T14:56:00Z,00000200,01000000,0000.26,0000.18,0000.05,0000.02,-000.03,0000.45,0000.00,0000.09,0000.16,20.3,26.6,,00.0,0637.6,31.1
2021-12-07T14:57:00Z,00000200,41000000,,,,,,,0001.35,0001.32,0001.05,20.3,26.6,,00.0,0637.6,31.1
2021-12-07T14:58:00Z,00000200,61000000,,,,,,,-000.79,-000.85,-000.61,20.1,26.8,,00.0,0636.8,31.2
2021-12-07T14:59:00Z,00000200,21000000,,,,,,,-000.19,-000.19,-000.34,20.1,26.9,,00.0,0636.8,31.2
